Regional Weather Roundup
Issued by NWS Lake Charles, LA

Home | Current Version | Previous Version | Text Only | Print | Product List | Glossary On
Versions: 1 2 3 4 5 6 7 8 9 10 11 12 13 14 15 16 17 18 19 20 21 22 23 24 25 26 27 28 29 30 31 32 33 34 35 36 37 38 39 40 41 42 43 44 45 46 47 48 49 50
000
ASUS44 KLCH 020910
RWRLCH
RWRLCH
REGIONAL WEATHER ROUNDUP
NATIONAL WEATHER SERVICE LAKE CHARLES LA
400 AM CDT SAT AUG 02 2014

Note: "fair" indicates few or no clouds below 12,000 feet with no
significant weather and/or obstructions to visibility.


ACROSS SOUTHEAST TEXAS

CITY           SKY/WX    TMP DP  RH WIND       PRES   REMARKS
BEAUMONT       CLEAR     72  69  90 N6        29.95S
BEAUMONT CITY  CLOUDY    71  70  96 NW3       29.97S FOG
ORANGE           N/A     70  70 100 CALM      29.97S FOG
JASPER         CLOUDY    70  67  92 NW5       29.99S
$$

ACROSS CENTRAL LOUISIANA

CITY           SKY/WX    TMP DP  RH WIND       PRES   REMARKS
LEESVILLE      MOCLDY    71  69  93 NW5       29.96S
FULLERTON      CLOUDY    73  69  87 CALM      29.94S
ALEXANDRIA INT CLOUDY    72  72 100 NW5       29.93F FOG
ESLER FIELD    CLOUDY    77  73  87 CALM      29.95S
DERIDDER       PTSUNNY   71  69  95 CALM      29.98S FOG
OAKDALE        CLOUDY    73  71  94 CALM      29.95R FOG
OPELOUSAS        N/A     74  74 100 CALM      29.93F FOG
$$

ACROSS SOUTHWEST AND SOUTH CENTRAL LOUISIANA

CITY           SKY/WX    TMP DP  RH WIND       PRES   REMARKS
SULPHUR        PTSUNNY   73  72  96 NW3       29.96S FOG
LAKE CHARLES   MOCLDY    74  71  91 N5        29.95R
CHENNAULT INT  MOCLDY    73  70  88 NW5       29.96R FOG
CAMERON PHI    CLOUDY    75  73  94 N5        29.95F
DEQUINCY       PTSUNNY   70  69  97 NW5       29.96S
JENNINGS       CLOUDY    73  73  97 NE3       29.93F
LAFAYETTE      MOCLDY    77  74  90 CALM      29.94S
NEW IBERIA     CLOUDY    76  73  91 SE6       29.95S
ABBEVILLE      CLOUDY    76  73  92 SE3       29.94R
PATTERSON      MOCLDY    77  75  94 E6        29.98S
SALT POINT       N/A     85  76  74 VRB5      29.93S
$$

SELECTED SITES ACROSS THE REGION

CITY           SKY/WX    TMP DP  RH WIND       PRES   REMARKS
HOUSTON BUSH   PTCLDY    72  69  90 CALM      29.98S
HOUSTON HOBBY  PTCLDY    73  68  84 N3        29.97F
GALVESTON      MOCLDY    76  71  85 N10       29.97F
COLLEGE STAT   PTCLDY    70  67  90 N3        30.01S FOG
CONROE         CLOUDY    72  68  87 N6        29.99F
HUNTSVILLE     CLOUDY    71  68  90 CALM      30.00S
LUFKIN         CLOUDY    73  68  84 CALM      29.99S HAZE
SHREVEPORT     DRIZZLE   70  68  93 N8        29.98F
MONROE         CLOUDY    71  69  93 NE6       29.99F FOG
NATCHEZ MS     CLOUDY    72  68  88 E6        29.97F
BATON ROUGE    MOCLDY    75  71  87 E6        29.95F
N.O. INTL ARPT CLOUDY    79  69  71 SE7       29.96S
SLIDELL        CLOUDY    74  70  87 CALM      29.97S
$$

MARINE REPORTS

STATION/POSITION TIME  TEMP    WIND        PRES    VSBY  WAVE
                       AIR SEA DIR/SP/G                  HT/PER
                 (UTC) (F)     (DEG/KT/KT) (MB)    (MI)  (FT/S)
BUOY 30 S HIGH I NOT AVBL
SEA RIM ST PARK  0900   71     360/  5/  6 1015.0S
PORT ARTHUR      0900      86  350/  5/  7 1014.3F
SABINE PASS N    0900   74 85  350/  6/  9 1014.4S
TEXAS POINT      0900   74 85  350/  8/  9 1014.4S
CALCASIEU PASS   0900   75 85   20/  8/ 10 1015.0S
LK CHARLES BEACH 0900   73 85              1014.8R
MARSH ISLAND     0800   84     180/  8/ 14   N/A
FRESH WATER LOCK 0900   77 85  200/  6/  7 1013.3F
AMERADA PASS     0900   81 84  150/  3/  5 1013.6R
$$



USA.gov is the U.S. government's official web portal to all federal, state and local government web resources and services.